Tracking 18624 objects as of 26-April-2017
HD Live streaming from Space Station
objects crossing your sky now

COSMOS 2209

Track COSMOS 2209 now!
COSMOS 2209 is classified as:


NORAD ID: 22112
Int'l Code: 1992-059A
Perigee: 35,748.3 km
Apogee: 35,837.6 km
Inclination: 15.0 °
Period: 1,436.1 minutes
Semi major axis: 42163 km
RCS: 5.0119 m2 (large)
Launch date: September 10, 1992
Source: Commonwealth of Independent States (former USSR) (CIS)
Launch site: TYURATAM MISSILE AND SPACE COMPLEX (TTMTR)
Your satellite tracking list
Your tracking list is empty





NASA's NSSDC Master Catalog

Two Line Element Set (TLE):
1 22112U 92059A   17115.40000491 -.00000199 +00000-0 +00000-0 0  9996
2 22112 015.0166 011.7688 0010599 232.3762 090.6205 01.00274645090166
Source of the keplerian elements: AFSPC